www.pogodaiklimat.ru

Погода и климат >> Архив погоды >> Великобритания >> London


АРХИВ ПОГОДЫ в London

Время (UTC), дата Ветер
(напр.,м/с)
 
Видим.   Явления Облачность Т
(С)
Тd
(С)
f
(%)
Тe
(С)
Тes
(С)
Комфортность P
(гПа)
Po
(гПа)
Тmin
(С)
Tmax
(С)
R
(мм)
R24
(мм)
S
(см)
05 22.04 СЗ 3 30 км н/о +8.9 +5.6 80 +6 +6 тепло 1028.9 1025.8
04 22.04 СЗ 2 24 км н/о +9.3 +5.9 79 +8 +8 тепло 1028.5 1025.4
06 22.04 СЗ 3 35 км н/о +9.3 +4.6 72 +7 +7 по сезону 1029.3 1026.2 +8.6
07 22.04 СЗ 4 40 км н/о +9.3 +4.4 71 +7 +7 по сезону 1029.5 1026.4
08 22.04 СЗ 4 30 км н/о +9.9 +5.1 72 +7 +7 по сезону 1029.7 1026.6
09 22.04 СЗ 4 23 км н/о +10.2 +5.7 74 +8 +8 по сезону 1029.7 1026.6
11 22.04 СВ 3 18 км н/о +12.0 +6.4 69 +10 +10 по сезону 1029.6 1026.6
10 22.04 СЗ 3 25 км н/о +11.0 +6.2 72 +9 +9 по сезону 1029.8 1026.7
12 22.04 С 3 26 км н/о +13.4 +5.3 58 +13 +13 по сезону 1028.9 1025.9
13 22.04 СВ 3 40 км н/о +13.7 +4.2 53 +13 +13 тепло 1028.7 1025.7
14 22.04 З 2 40 км н/о +15.0 +3.4 46 +15 +15 тепло 1027.8 1024.8
15 22.04 З 4 28 км н/о +16.8 +2.4 38 +16 +16 тепло 1027.3 1024.3
17 22.04 С 3 40 км н/о +15.2 +1.7 40 +15 +15 тепло 1026.9 1023.9
16 22.04 В 2 50 км н/о +15.5 +3.2 44 +16 +16 тепло 1027.1 1024.0
18 22.04 С 3 45 км н/о +15.1 +1.0 38 +15 +15 тепло 1026.8 1023.8 +17.3
19 22.04 С 2 40 км н/о +14.2 +0.8 40 +14 +14 тепло 1026.7 1023.7
20 22.04 С 2 35 км н/о +12.4 +1.6 48 +12 +12 тепло 1027.3 1024.2
21 22.04 В 6 24 км н/о +10.0 +5.0 71 +7 +7 по сезону 1027.9 1024.9
23 22.04 СВ 2 23 км н/о +8.1 +4.9 80 +6 +6 тепло 1028.1 1025.0
22 22.04 В 3 23 км н/о +8.8 +5.1 78 +6 +6 по сезону 1028.1 1025.0
00 23.04 ЮВ 4 22 км н/о +8.1 +5.8 85 +5 +5 по сезону 1028.4 1025.3
01 23.04 ЮВ 5 21 км н/о +8.6 +5.1 79 +5 +5 тепло 1028.2 1025.1
02 23.04 ЮВ 4 27 км н/о +8.4 +4.6 77 +5 +5 по сезону 1028.2 1025.0
03 23.04 ЮВ 4 24 км н/о +8.3 +4.3 76 +5 +5 по сезону 1028.1 1024.9
05 23.04 ЮВ 3 28 км н/о +8.0 +2.5 68 +6 +6 тепло 1027.7 1024.6
04 23.04 ЮВ 4 27 км н/о +8.2 +3.4 72 +5 +5 по сезону 1028.0 1024.8
06 23.04 ЮВ 3 30 км н/о +8.3 +2.8 68 +6 +6 по сезону 1027.9 1024.8 +7.1
07 23.04 В 2 30 км н/о +8.6 +3.0 68 +7 +7 по сезону 1028.1 1025.0
08 23.04 ЮВ 3 30 км н/о +9.6 +3.8 67 +8 +8 по сезону 1028.1 1025.0
09 23.04 Ю 3 18 км н/о +10.6 +5.1 69 +9 +9 по сезону 1027.8 1024.8
11 23.04 СЗ 4 30 км н/о +12.1 +5.6 64 +10 +10 по сезону 1027.1 1024.0
10 23.04 ЮЗ 4 22 км н/о +13.0 +5.7 61 +12 +12 по сезону 1027.5 1024.4
12 23.04 З 4 24 км н/о +13.4 +4.2 54 +12 +12 по сезону 1026.4 1023.3
13 23.04 З 3 40 км н/о +15.0 +1.8 41 +15 +15 тепло 1025.6 1022.6
14 23.04 З 5 35 км н/о +15.9 +2.2 40 +15 +15 тепло 1025.1 1022.1
15 23.04 СЗ 4 50 км н/о +15.9 +2.4 40 +15 +15 тепло 1024.5 1021.5
17 23.04 СЗ 3 27 км н/о +15.2 +2.7 43 +15 +15 тепло 1023.7 1020.6
16 23.04 З 5 40 км н/о +15.9 +1.5 38 +15 +15 тепло 1024.0 1021.0
18 23.04 СЗ 2 40 км н/о +15.2 +2.5 42 +15 +15 тепло 1023.3 1020.3 +16.8
19 23.04 З 4 45 км н/о +13.8 +2.6 47 +13 +13 тепло 1022.9 1019.8
20 23.04 Ю 5 15 км н/о +12.1 +6.6 69 +10 +10 тепло 1023.0 1019.9
21 23.04 Ю 4 14 км н/о +10.8 +6.8 76 +9 +9 по сезону 1022.9 1019.8
23 23.04 Ю 3 9000 м дым н/о +9.0 +6.7 85 +6 +6 тепло 1022.0 1018.9
22 23.04 Ю 4 10 км н/о +9.7 +6.8 82 +7 +7 тепло 1022.4 1019.4
00 24.04 ЮЗ 4 9000 м дым н/о +8.5 +6.4 87 +6 +6 по сезону 1021.5 1018.4
01 24.04 ЮЗ 3 10 км н/о +7.3 +5.3 87 +5 +5 тепло 1021.0 1017.9
02 24.04 ЮЗ 2 15 км н/о +7.3 +5.5 88 +6 +6 по сезону 1020.2 1017.1
03 24.04 З 1 16 км н/о +6.8 +5.6 92 +6 +6 по сезону 1019.6 1016.5
05 24.04 З 2 16 км н/о +5.5 +3.6 88 +3 +3 по сезону 1018.8 1015.7
04 24.04 З 3 21 км н/о +7.2 +5.2 87 +5 +5 по сезону 1019.2 1016.2
06 24.04 З 2 16 км н/о +6.8 +5.1 89 +4 +4 по сезону 1018.5 1015.4 +4.8
07 24.04 З 3 24 км н/о +8.7 +5.4 80 +7 +7 по сезону 1018.3 1015.2
08 24.04 З 3 22 км н/о +11.0 +6.4 73 +9 +9 по сезону 1017.7 1014.6
09 24.04 СЗ 4 30 км н/о +12.0 +5.7 65 +10 +10 по сезону 1017.4 1014.4
11 24.04 З 4 40 км в посл. час дождь н/о +12.7 +6.2 65 +11 +11 по сезону 1016.3 1013.3
10 24.04 З 4 13 км слаб. ливневой дождь н/о +11.2 +7.1 76 +9 +9 прохладно 1017.1 1014.1
12 24.04 З 4 8000 м ливневой дождь н/о +11.3 +8.2 81 +9 +9 прохладно 1015.9 1012.9 0.2
13 24.04 З 4 50 км в посл. час дождь н/о +12.9 +7.7 71 +11 +11 по сезону 1014.8 1011.8
14 24.04 З 6 40 км н/о +13.2 +7.1 66 +11 +11 по сезону 1013.9 1010.8
15 24.04 З 5 40 км в посл. час дождь н/о +12.7 +7.1 69 +11 +11 по сезону 1013.1 1010.1
17 24.04 З 6 45 км в посл. час дождь н/о +12.3 +5.9 65 +10 +10 по сезону 1012.2 1009.2
16 24.04 З 6 35 км н/о +13.0 +6.5 65 +11 +11 по сезону 1012.5 1009.5
18 24.04 СЗ 4 40 км в посл. час дождь н/о +10.3 +5.3 71 +8 +8 прохладно 1012.7 1009.6 +13.6 0.2
19 24.04 СЗ 4 50 км в посл. час дождь н/о +10.0 +4.8 70 +7 +7 тепло 1012.6 1009.6
20 24.04 СЗ 5 40 км н/о +9.4 +0.2 53 +6 +6 по сезону 1013.2 1010.2
21 24.04 СЗ 5 50 км н/о +8.7 -2.0 47 +6 +6 прохладно 1013.3 1010.3
23 24.04 СЗ 5 29 км н/о +5.7 -5.4 45 +2 +2 по сезону 1013.9 1010.8
22 24.04 СЗ 5 45 км н/о +6.7 -5.2 42 +3 +3 по сезону 1013.6 1010.5
00 25.04 СЗ 4 40 км н/о +4.6 -4.5 52 +1 +1 холодно 1013.9 1010.7
01 25.04 СЗ 4 28 км н/о +3.7 -4.2 56 0 0 по сезону 1013.5 1010.3
02 25.04 СЗ 4 26 км н/о +3.1 -3.5 62 -1 -1 прохладно 1013.4 1010.3
03 25.04 СЗ 4 12 км н/о +2.6 -3.5 64 -2 -2 очень
холодно
1013.3 1010.2
05 25.04 З 4 28 км н/о +1.2 -3.2 72 -4 -4 прохладно 1013.4 1010.2
04 25.04 З 3 28 км н/о +0.5 -3.9 72 -4 -4 холодно 1013.2 1010.1
06 25.04 З 4 25 км н/о +3.0 -3.4 63 -1 -1 холодно 1013.8 1010.6 +0.3
07 25.04 СЗ 4 26 км н/о +4.1 -2.1 64 0 0 прохладно 1014.2 1011.1
08 25.04 СЗ 4 45 км н/о +5.5 -2.0 58 +2 +2 холодно 1014.4 1011.3
09 25.04 С 4 30 км н/о +6.6 -3.6 48 +4 +4 холодно 1014.5 1011.4
11 25.04 С 5 30 км н/о +9.2 -3.9 39 +7 +7 прохладно 1014.4 1011.3
10 25.04 С 4 30 км н/о +7.9 -3.9 43 +5 +5 холодно 1014.4 1011.3
12 25.04 СЗ 5 30 км н/о +9.3 -5.9 34 +7 +7 холодно 1014.3 1011.2
13 25.04 СЗ 5 45 км н/о +9.4 -5.4 35 +7 +7 по сезону 1014.3 1011.2
14 25.04 СЗ 4 50 км н/о +9.9 -5.7 33 +8 +8 прохладно 1013.9 1010.8
15 25.04 С 4 35 км н/о +11.4 -4.2 33 +10 +10 по сезону 1013.5 1010.4
17 25.04 С 4 30 км н/о +9.5 -3.7 39 +7 +7 по сезону 1013.4 1010.3
16 25.04 СЗ 6 50 км н/о +8.7 -2.9 44 +6 +6 прохладно 1013.6 1010.5
18 25.04 С 5 30 км ливневой дождь н/о +7.7 +0.4 60 +4 +4 очень
холодно
1014.0 1011.0 +11.8
19 25.04 С 4 50 км в посл. час дождь н/о +6.0 +0.7 69 +3 +3 по сезону 1014.6 1011.5
20 25.04 СЗ 2 45 км н/о +4.6 +0.3 74 +2 +2 прохладно 1015.1 1012.0
21 25.04 СЗ 2 50 км н/о +3.7 +0.7 81 +1 +1 очень
холодно
1015.6 1012.5
23 25.04 СЗ 3 45 км н/о +2.9 +0.4 84 -1 -1 по сезону 1016.2 1013.1
22 25.04 СЗ 3 50 км н/о +3.6 +1.0 83 0 0 прохладно 1016.1 1012.9
00 26.04 СЗ 3 40 км н/о +2.7 +0.2 84 -1 -1 холодно 1016.5 1013.3
01 26.04 СЗ 2 24 км н/о +2.5 +0.5 87 -1 -1 по сезону 1016.3 1013.2
02 26.04 С 4 20 км н/о +2.5 +0.4 86 -2 -2 холодно 1016.2 1013.1
03 26.04 С 4 21 км н/о +2.7 +0.3 84 -2 -2 очень
холодно
1016.2 1013.1
05 26.04 С 3 27 км н/о +3.1 +0.7 84 -1 -1 по сезону 1016.5 1013.4
04 26.04 С 3 21 км н/о +2.6 +0.6 87 -1 -1 прохладно 1016.4 1013.2
06 26.04 С 3 22 км н/о +3.8 +0.9 81 0 0 холодно 1017.1 1013.9 +2.2
07 26.04 С 4 22 км н/о +4.9 +1.3 77 +1 +1 прохладно 1017.6 1014.4
08 26.04 С 4 22 км н/о +6.0 +1.6 73 +2 +2 холодно 1017.8 1014.6
09 26.04 С 5 16 км н/о +7.0 +0.8 65 +3 +3 холодно 1017.9 1014.9
11 26.04 С 5 27 км н/о +9.7 +1.0 55 +7 +7 прохладно 1018.1 1015.0
10 26.04 С 6 24 км н/о +8.9 +0.7 56 +6 +6 холодно 1018.0 1015.0
12 26.04 С 6 26 км слаб. ливневой дождь н/о +8.0 +0.4 59 +4 +4 очень
холодно
1018.3 1015.2 0.2
13 26.04 СЗ 3 25 км в посл. час дождь н/о +7.6 +2.1 68 +5 +5 прохладно 1018.4 1015.4
14 26.04 С 4 29 км н/о +11.0 +0.4 48 +9 +9 по сезону 1017.9 1014.9
15 26.04 СВ 3 14 км ливневой дождь н/о +7.3 +3.1 75 +4 +4 очень
холодно
1018.5 1015.4
17 26.04 С 6 35 км н/о +7.8 +1.4 64 +4 +4 прохладно 1019.1 1016.0
16 26.04 С 5 35 км в посл. час дождь н/о +8.8 +2.4 64 +6 +6 прохладно 1018.7 1015.6
18 26.04 С 3 45 км н/о +7.2 +0.7 63 +5 +5 холодно 1019.4 1016.3 +11.1 2
19 26.04 СВ 5 40 км н/о +6.6 +0.5 65 +3 +3 по сезону 1020.0 1016.9
20 26.04 С 2 40 км н/о +5.7 +0.8 71 +3 +3 прохладно 1020.4 1017.3
21 26.04 С 3 40 км н/о +5.7 +0.8 71 +3 +3 холодно 1020.8 1017.7
23 26.04 СЗ 2 24 км н/о +3.6 +0.8 82 +1 +1 по сезону 1021.1 1018.0
22 26.04 С 2 35 км н/о +5.0 +0.7 74 +3 +3 по сезону 1021.0 1017.8
00 27.04 СЗ 2 22 км н/о +2.6 +0.6 87 0 0 холодно 1021.2 1018.0
01 27.04 С 2 28 км н/о +2.6 +0.7 87 0 0 по сезону 1021.0 1017.8
02 27.04 С 2 24 км н/о +2.0 +0.2 88 -1 -1 прохладно 1020.8 1017.6
03 27.04 СЗ 1 11 км н/о +1.5 +0.1 90 -0 -0 холодно 1020.6 1017.4
05 27.04 З 2 12 км н/о +1.4 +0.5 94 -2 -2 по сезону 1020.6 1017.4
04 27.04 З 3 14 км н/о +0.8 -0.4 92 -3 -3 холодно 1020.7 1017.5
06 27.04 З 2 11 км н/о +2.2 +1.1 92 -1 -1 холодно 1020.7 1017.5 +0.6
07 27.04 З 3 17 км н/о +4.4 +1.7 83 +1 +1 прохладно 1020.7 1017.6
08 27.04 З 3 23 км н/о +6.7 +2.3 73 +4 +4 прохладно 1020.6 1017.5
09 27.04 З 4 24 км н/о +8.0 +1.0 61 +5 +5 прохладно 1020.4 1017.3
11 27.04 З 4 21 км н/о +10.5 -1.6 43 +8 +8 прохладно 1019.5 1016.4
10 27.04 З 6 40 км н/о +9.8 -3.9 38 +7 +7 холодно 1020.0 1016.9
12 27.04 СЗ 4 40 км н/о +10.4 -0.4 47 +8 +8 холодно 1019.1 1016.0
13 27.04 СЗ 5 45 км н/о +10.7 +0.3 49 +8 +8 по сезону 1018.7 1015.7
14 27.04 З 4 14 км слаб. ливневой дождь н/о +10.5 +1.6 54 +8 +8 прохладно 1018.4 1015.3
15 27.04 З 5 45 км слаб. дождь н/о +10.6 +2.2 56 +8 +8 прохладно 1017.9 1014.9
17 27.04 З 4 30 км слаб. ливневой дождь н/о +10.1 +4.4 68 +8 +8 по сезону 1017.3 1014.2
16 27.04 З 4 29 км в посл. час дождь н/о +10.6 +3.3 61 +9 +9 по сезону 1017.4 1014.3
18 27.04 З 3 45 км в посл. час дождь н/о +8.8 +5.9 82 +6 +6 холодно 1017.1 1014.0 +11.1 0.2
19 27.04 З 4 40 км в посл. час дождь н/о +8.7 +5.8 82 +6 +6 по сезону 1016.9 1013.8
20 27.04 З 4 35 км слаб. ливневой дождь н/о +8.5 +5.7 83 +5 +5 по сезону 1017.0 1013.9
21 27.04 З 3 40 км в посл. час дождь н/о +8.3 +5.8 84 +6 +6 прохладно 1017.3 1014.2
23 27.04 З 3 25 км слаб. ливневой дождь н/о +8.0 +5.5 84 +6 +6 тепло 1017.1 1014.0
22 27.04 З 4 45 км н/о +8.5 +5.7 83 +6 +6 по сезону 1017.1 1014.1
00 28.04 З 3 35 км в посл. час дождь н/о +8.0 +4.6 79 +5 +5 по сезону 1017.0 1014.0
01 28.04 СЗ 3 30 км н/о +7.4 +4.5 82 +5 +5 тепло 1016.9 1013.8
02 28.04 З 3 30 км н/о +7.6 +4.8 82 +5 +5 по сезону 1016.7 1013.7
03 28.04 СЗ 2 14 км слаб. ливневой дождь н/о +7.4 +5.2 86 +5 +5 по сезону 1016.6 1013.5
05 28.04 СЗ 1 17 км в посл. час дождь н/о +7.5 +5.6 88 +7 +7 тепло 1016.8 1013.7
04 28.04 СЗ 2 16 км в посл. час дождь н/о +7.5 +5.4 87 +5 +5 по сезону 1016.7 1013.7
06 28.04 СЗ 2 16 км н/о +7.7 +5.8 88 +6 +6 по сезону 1017.0 1013.9 +7.3
07 28.04 СЗ 2 15 км в посл. час дождь н/о +8.6 +6.5 87 +7 +7 по сезону 1017.1 1014.0
08 28.04 С 2 18 км слаб. ливневой дождь н/о +9.6 +6.8 83 +8 +8 по сезону 1017.4 1014.4
09 28.04 СЗ 2 22 км в посл. час дождь н/о +9.7 +4.5 70 +8 +8 по сезону 1017.4 1014.3
11 28.04 СЗ 2 35 км в посл. час дождь н/о +10.8 +3.8 62 +10 +10 по сезону 1017.4 1014.4
10 28.04 С 2 35 км в посл. час дождь н/о +10.5 +4.0 64 +9 +9 прохладно 1017.5 1014.4
12 28.04 З 1 30 км в посл. час дождь н/о +10.6 +4.7 67 +10 +10 прохладно 1017.2 1014.2
13 28.04 З 3 35 км н/о +12.4 +4.4 58 +11 +11 по сезону 1017.0 1014.0
14 28.04 СЗ 2 24 км н/о +12.6 +4.3 57 +12 +12 по сезону 1016.9 1013.8
15 28.04 Ю 2 30 км н/о +14.2 +4.2 51 +14 +14 по сезону 1016.5 1013.5
17 28.04 З 3 50 км н/о +13.2 +3.2 51 +12 +12 тепло 1016.4 1013.4
16 28.04 С 1 35 км н/о +14.0 +3.2 48 +15 +15 тепло 1016.4 1013.4
18 28.04 З 2 40 км н/о +12.7 +4.7 58 +12 +12 по сезону 1016.3 1013.2 +15.0
19 28.04 СЗ 2 20 км н/о +12.4 +4.8 60 +12 +12 тепло 1016.4 1013.4
20 28.04 СЗ 1 35 км н/о +12.0 +4.9 62 +12 +12 тепло 1016.6 1013.6
21 28.04 С 1 35 км н/о +11.9 +4.9 62 +13 +13 тепло 1016.8 1013.7
23 28.04 З 3 30 км н/о +10.4 +5.9 74 +9 +9 тепло 1016.9 1013.8
22 28.04 ЮЗ 4 35 км н/о +11.7 +5.7 67 +10 +10 тепло 1016.8 1013.7
00 29.04 З 3 30 км н/о +10.1 +5.1 71 +8 +8 по сезону 1016.8 1013.8
01 29.04 З 3 25 км н/о +7.8 +4.3 79 +5 +5 тепло 1016.6 1013.6
02 29.04 З 2 35 км н/о +7.3 +3.7 78 +6 +6 по сезону 1016.6 1013.5
03 29.04 З 2 35 км н/о +6.9 +3.4 78 +5 +5 по сезону 1016.5 1013.4
04 29.04 З 2 27 км н/о +5.4 +2.8 83 +3 +3 тепло 1016.6 1013.5

 

Местоположение метеостанции London (Великобритания): широта 51.48 долгота -0.45 высота над уровнем моря 25 м.

В архиве по умолчанию представлена погода в London за последнюю неделю. Архивные данные за месяц целиком и за предыдущие месяцы, начиная с января 2011 года, Вы можете получить, выбрав интересующий диапазон дат из раскрывающегося списка и нажав кнопку "Ввод!".

Внимание! Время в таблицах - всемирное. Для получения местного времени необходимо прибавить поправку, которая в London равна 0 ч.

Смотрите также архив погоды в соседних городах и на ближайших метеорологических станциях:

Погода в Northolt (Великобритания) (8 км)
Погода в London, St James Park (Великобритания) (23 км)
Погода в Charlwood (Великобритания) (28 км)
Погода в Farnborough (Великобритания) (31 км)
Погода в Kenley Airfield (Великобритания) (33 км)
Погода в High Wycombe Hqstc (Великобритания) (33 км)
Погода в Odiham (Великобритания) (44 км)
Погода в Benson (Великобритания) (46 км)
Погода в Gravesend-Broadness (Великобритания) (52 км)
Погода в Rothamsted (Великобритания) (66 км)

Пояснения к столбцам:

Ветер - указаны скорость ветра в м/с - средняя за 10 мин, порывы в срок и между сроками (в фигурных скобках) и направление, откуда дует ветер: С - северный, СВ - северо-восточный, В - восточный, ЮВ - юго-восточный, Ю - южный, ЮЗ - юго-западный, З - западный, СЗ - северо-западный.
Видимость - горизонтальная дальность видимости в метрах или километрах. При видимости от 1 до 10 км при отсутствии осадков обычно наблюдается дымка, при ухудшении видимости до 1 км и менее - туман. В сухую погоду видимость может ухудшаться дымом, пылью или мглою.
Явления - указаны атмосферные явления, наблюдавшиеся в срок или в последний час перед сроком; фигурными скобками обозначены явления, наблюдавшиеся между сроками (за 1-3 часа до срока); квадратными скобками обозначены град или гололедные отложения с указанием их диаметра в мм.
Облачность - указаны через наклонную черту общая и нижняя облачность в баллах и высота нижней границы облаков в метрах; квадратными скобками обозначены формы облаков: Ci - перистые, Cs - перисто-слоистые, Cc - перисто-кучевые, Ac - высококучевые, As - высокослоистые, Sc - слоисто-кучевые, Ns - слоисто-дождевые, Cu - кучевые, Cb - кучево-дождевые. Подробнее классификацию облаков см. в Атласе облаков (PDF).
T - Температура воздуха - температура, измеренная на высоте 2 м над землей.
Td - Температура точки росы - температура, при понижении до которой содержащийся в воздухе водяной пар достигнет насыщения.
f - Относительная влажность воздуха - влажноcть воздуха, измеренная на высоте 2 м над землей.
Te - Эффективная температура - температура, которую ощущает одетый по сезону человек в тени. Характеристика душности погоды. При расчете учитывается влияние влажности воздуха и скорости ветра на теплоощущения человека.
Tes - Эффективная температура на солнце - температура, которую ощущает человек, с поправкой на солнечный нагрев. Характеристика знойности погоды. Зависит от высоты солнца над горизонтом, облачности и скорости ветра. Ночью, в пасмурную погоду, а также при ветре 12 м/с и более поправка равна нулю.
P - Атмосферное давление - приведенное к уровню моря атмосферное давление.
Po - Атмосферное давление - измеренное на уровне метеостанции атмосферное давление.
Tmin - Минимальная температура - минимум температуры воздуха на высоте 2 м над землей.
Tmax - Максимальная температура - максимум температуры воздуха на высоте 2 м над землей.
R - Количество осадков - Количество выпавших осадков за период времени, мм. При наведении курсора мыши на число - период времени, за который выпало указанное количество осадков.
R24 - Количество осадков - Количество выпавших осадков за 24 часа, мм.
S - Снежный покров - Высота снежного покрова, см. При наведении курсора мыши на число - состояние снежного покрова и степень покрытия местности в баллах.